Terminal Aerodrome Forecast
Issued by NWS Des Moines, IA

Home | Current Version | Previous Version | Text Only | Print | Product List | Glossary On
Versions: 1 2 3 4 5 6 7 8 9 10 11 12 13 14 15 16 17 18 19 20 21 22 23 24 25 26 27 28
000
FTUS43 KDMX 281136
TAFDSM
TAF
KDSM 281136Z 2812/2912 13007KT P6SM BKN060
     FM281500 16011KT P6SM SCT050
     FM290700 17015G23KT P6SM VCSH BKN040=

USA.gov is the U.S. government's official web portal to all federal, state and local government web resources and services.